Weather History for Wayne, NE

Change the Weather History Date:

Thursday, May 23, 2013

  Actual Average (KOFK) Record (KOFK)
Temperature  
Mean Temperature 60 °F 63 °F  
Max Temperature 72 °F 74 °F 95 °F (1950)
Min Temperature 50 °F 51 °F 35 °F (1913)
Degree Days  
Heating Degree Days 4 4  
Month to date heating degree days 162  
Since 1 July heating degree days 6585  
Cooling Degree Days 0 2  
Month to date cooling degree days 30  
Year to date cooling degree days 42  
Growing Degree Days 10 (Base 50)    
Moisture  
Dew Point 43 °F    
Average Humidity 59    
Maximum Humidity 93    
Minimum Humidity 27    
Precipitation  
Precipitation 0.00 in 0.14 in 1.36 in (1997)
Month to date precipitation 2.83  
Year to date precipitation 8.60  
Snow  
Snow 0.00 in 0.00 in - ()
Month to date snowfall 0.3  
Since 1 July snowfall 30.8  
Snow Depth -    
Sea Level Pressure  
Sea Level Pressure 30.17 in    
Wind  
Wind Speed 11 mph (NE)    
Max Wind Speed 22 mph    
Max Gust Speed 24 mph    
Visibility 10 miles    
Events      
T = Trace of Precipitation, MM = Missing Value Source: NWS Daily Summary

Daily Weather History Graph

Daily Weather History Graph

Search for Another Location

Airport:

Trip Planner

Search our weather history database for the weather conditions in past years. The results will help you decide how hot, cold, wet, or windy it might be!

Date:

Astronomy

May. 23, 2013 Rise Set
Actual Time 5:59 AM CDT 8:50 PM CDT
Civil Twilight 5:26 AM CDT 9:23 PM CDT
Nautical Twilight 4:44 AM CDT 10:05 PM CDT
Astronomical Twilight 3:56 AM CDT 10:53 PM CDT
Moon 7:23 PM CDT (5/23) 4:47 AM CDT (5/23)
Length of Visible Light 15h 57m
Length of Day
14h 51m
Waxing Gibbous, 97% of the Moon is Illuminated
May 23
Waxing Gibbous
May 24
Full
May 31
Last Quarter
Jun 8
New
Jun 16
First Quarter

Hourly Weather History & Observations

Time (CDT) Temp. Dew Point Humidity Pressure Visibility Wind Dir Wind Speed Gust Speed Precip Events Conditions
12:15 AM 52.5 °F 50.4 °F 92% 30.02 in 10.0 mi NNW 9.2 mph - N/A   Overcast
12:35 AM 52.7 °F 50.4 °F 92% 30.03 in 10.0 mi North 11.5 mph - N/A   Overcast
12:55 AM 52.5 °F 50.0 °F 91% 30.03 in 10.0 mi North 9.2 mph - N/A   Overcast
1:15 AM 52.2 °F 48.7 °F 88% 30.03 in 10.0 mi North 10.4 mph - N/A   Overcast
1:35 AM 52.2 °F 48.6 °F 88% 30.03 in 10.0 mi North 8.1 mph - N/A   Overcast
1:55 AM 52.2 °F 49.1 °F 89% 30.04 in 10.0 mi North 6.9 mph - N/A   Overcast
2:15 AM 51.8 °F 49.3 °F 91% 30.04 in 10.0 mi NNW 11.5 mph - N/A   Overcast
2:35 AM 51.4 °F 48.6 °F 90% 30.05 in 10.0 mi NNW 9.2 mph - N/A   Overcast
2:55 AM 51.1 °F 48.6 °F 91% 30.05 in 10.0 mi North 9.2 mph - N/A   Overcast
3:15 AM 51.6 °F 48.6 °F 89% 30.05 in 10.0 mi North 10.4 mph - N/A   Overcast
3:35 AM 51.6 °F 48.7 °F 90% 30.06 in 10.0 mi North 15.0 mph - N/A   Overcast
3:55 AM 50.9 °F 48.2 °F 90% 30.07 in 10.0 mi NNE 12.7 mph - N/A   Overcast
4:15 AM 50.7 °F 48.0 °F 90% 30.08 in 10.0 mi NNE 13.8 mph - N/A   Overcast
4:35 AM 50.9 °F 48.2 °F 90% 30.09 in 10.0 mi NNE 13.8 mph 19.6 mph N/A   Overcast
4:55 AM 50.5 °F 48.6 °F 93% 30.10 in 10.0 mi NNE 10.4 mph 13.8 mph N/A   Overcast
5:15 AM 50.9 °F 48.6 °F 92% 30.12 in 10.0 mi NNE 10.4 mph - N/A   Overcast
5:35 AM 50.9 °F 48.6 °F 92% 30.12 in 10.0 mi NNE 9.2 mph - N/A   Overcast
5:55 AM 51.1 °F 48.4 °F 90% 30.13 in 10.0 mi NNE 11.5 mph - N/A   Overcast
6:15 AM 51.4 °F 48.4 °F 89% 30.14 in 10.0 mi NNE 11.5 mph - N/A   Overcast
6:35 AM 51.1 °F 47.7 °F 88% 30.15 in 10.0 mi North 11.5 mph - N/A   Overcast
6:55 AM 50.4 °F 46.4 °F 86% 30.16 in 10.0 mi NNE 11.5 mph - N/A   Overcast
7:15 AM 50.5 °F 45.7 °F 83% 30.17 in 10.0 mi NNE 15.0 mph - N/A   Scattered Clouds
7:35 AM 50.7 °F 45.0 °F 81% 30.18 in 10.0 mi NNE 15.0 mph 18.4 mph N/A   Clear
7:55 AM 51.4 °F 45.3 °F 80% 30.18 in 10.0 mi NNE 17.3 mph - N/A   Clear
8:15 AM 51.8 °F 45.3 °F 79% 30.19 in 10.0 mi NE 16.1 mph 19.6 mph N/A   Clear
8:35 AM 52.5 °F 45.1 °F 76% 30.20 in 10.0 mi NNE 12.7 mph - N/A   Clear
8:55 AM 53.2 °F 45.5 °F 75% 30.22 in 10.0 mi NNE 9.2 mph - N/A   Clear
9:15 AM 54.5 °F 46.0 °F 73% 30.22 in 10.0 mi NE 10.4 mph - N/A   Clear
9:35 AM 55.0 °F 46.0 °F 72% 30.22 in 10.0 mi NE 9.2 mph - N/A   Clear
9:55 AM 56.3 °F 46.8 °F 70% 30.23 in 10.0 mi NNE 8.1 mph - N/A   Clear
10:15 AM 58.1 °F 47.8 °F 69% 30.23 in 10.0 mi NE 8.1 mph - N/A   Clear
10:35 AM 58.3 °F 47.3 °F 67% 30.23 in 10.0 mi ENE 6.9 mph - N/A   Clear
10:55 AM 59.9 °F 48.2 °F 65% 30.23 in 10.0 mi NE 12.7 mph - N/A   Clear
11:15 AM 61.5 °F 46.9 °F 59% 30.23 in 10.0 mi East 11.5 mph 18.4 mph N/A   Clear
11:35 AM 61.9 °F 45.7 °F 55% 30.23 in 10.0 mi ENE 11.5 mph 16.1 mph N/A   Clear
11:55 AM 63.0 °F 44.1 °F 50% 30.24 in 10.0 mi ENE 11.5 mph - N/A   Clear
12:15 PM 64.6 °F 42.6 °F 45% 30.23 in 10.0 mi ENE 13.8 mph 19.6 mph N/A   Clear
12:35 PM 65.5 °F 42.4 °F 43% 30.22 in 10.0 mi ENE 16.1 mph 23.0 mph N/A   Clear
12:55 PM 66.4 °F 42.3 °F 41% 30.21 in 10.0 mi East 19.6 mph 23.0 mph N/A   Clear
1:15 PM 67.3 °F 42.8 °F 41% 30.20 in 10.0 mi ENE 16.1 mph 24.2 mph N/A   Clear
1:35 PM 67.8 °F 41.0 °F 38% 30.20 in 10.0 mi ENE 18.4 mph 24.2 mph N/A   Clear
1:55 PM 68.7 °F 39.6 °F 34% 30.20 in 10.0 mi ENE 21.9 mph - N/A   Clear
2:15 PM 69.3 °F 38.7 °F 33% 30.20 in 10.0 mi ENE 11.5 mph 21.9 mph N/A   Clear
2:35 PM 70.3 °F 39.7 °F 33% 30.20 in 10.0 mi ENE 17.3 mph 20.7 mph N/A   Clear
2:55 PM 70.3 °F 38.7 °F 31% 30.21 in 10.0 mi East 13.8 mph 20.7 mph N/A   Clear
3:15 PM 71.1 °F 39.2 °F 31% 30.21 in 10.0 mi ENE 13.8 mph 20.7 mph N/A   Clear
3:35 PM 71.6 °F 39.7 °F 31% 30.21 in 10.0 mi ENE 11.5 mph 19.6 mph N/A   Clear
3:55 PM 71.2 °F 38.3 °F 30% 30.20 in 10.0 mi East 15.0 mph 21.9 mph N/A   Clear
4:15 PM 71.6 °F 37.2 °F 29% 30.20 in 10.0 mi East 11.5 mph 21.9 mph N/A   Clear
4:35 PM 71.1 °F 36.3 °F 28% 30.20 in 10.0 mi East 11.5 mph 16.1 mph N/A   Clear
4:55 PM 71.6 °F 36.7 °F 28% 30.20 in 10.0 mi ENE 9.2 mph - N/A   Clear
5:15 PM 71.2 °F 35.8 °F 27% 30.20 in 10.0 mi East 15.0 mph - N/A   Clear
5:35 PM 71.8 °F 35.6 °F 27% 30.20 in 10.0 mi ENE 10.4 mph 17.3 mph N/A   Clear
5:55 PM 71.6 °F 36.7 °F 28% 30.20 in 10.0 mi ENE 9.2 mph - N/A   Clear
6:15 PM 71.2 °F 37.0 °F 29% 30.20 in 10.0 mi East 12.7 mph - N/A   Clear
6:35 PM 70.9 °F 36.0 °F 28% 30.20 in 10.0 mi East 9.2 mph - N/A   Clear
6:55 PM 70.5 °F 34.9 °F 27% 30.20 in 10.0 mi East 10.4 mph - N/A   Clear
7:15 PM 70.0 °F 36.1 °F 29% 30.20 in 10.0 mi ESE 10.4 mph - N/A   Clear
7:35 PM 69.3 °F 34.7 °F 28% 30.20 in 10.0 mi East 11.5 mph - N/A   Clear
7:55 PM 68.2 °F 36.7 °F 31% 30.20 in 10.0 mi East 9.2 mph - N/A   Clear
8:15 PM 67.1 °F 36.9 °F 33% 30.20 in 10.0 mi East 8.1 mph - N/A   Clear
8:35 PM 64.6 °F 39.0 °F 39% 30.20 in 10.0 mi East 8.1 mph - N/A   Clear
8:55 PM 63.1 °F 39.4 °F 42% 30.20 in 10.0 mi East 8.1 mph - N/A   Clear
9:15 PM 62.2 °F 38.8 °F 42% 30.20 in 10.0 mi East 9.2 mph - N/A   Clear
9:35 PM 61.0 °F 39.2 °F 45% 30.20 in 10.0 mi East 9.2 mph - N/A   Clear
9:55 PM 59.9 °F 39.2 °F 46% 30.21 in 10.0 mi East 9.2 mph - N/A   Clear
10:15 PM 58.1 °F 39.9 °F 51% 30.22 in 10.0 mi East 8.1 mph - N/A   Clear
10:35 PM 56.3 °F 40.3 °F 55% 30.23 in 10.0 mi East 8.1 mph - N/A   Clear
10:55 PM 56.3 °F 39.4 °F 53% 30.24 in 10.0 mi East 9.2 mph - N/A   Clear
11:15 PM 55.9 °F 38.3 °F 52% 30.25 in 10.0 mi East 10.4 mph - N/A   Clear
11:35 PM 55.9 °F 37.9 °F 51% 30.25 in 10.0 mi East 11.5 mph - N/A   Clear
11:55 PM 55.6 °F 37.8 °F 51% 30.25 in 10.0 mi East 11.5 mph - N/A   Clear